Regional Weather Roundup
Issued by NWS

Home | Current Version | Previous Version | Graphics & Text | Print | Product List | Glossary On
Versions: 1 2 3 4 5 6 7 8 9 10 11 12 13 14 15 16 17 18 19 20 21 22 23 24 25 26 27 28 29 30 31 32 33 34 35 36 37 38 39 40 41 42 43 44 45 46 47 48 49 50
000
ASUS45 KPSR 020500
RWRAZ

ARIZONA HOURLY REGIONAL WEATHER ROUNDUP
NATIONAL WEATHER SERVICE PHOENIX AZ
1000 PM MST TUE SEP 01 2015

NOTE: FAIR INDICATES FEW OR NO CLOUDS BELOW 12,000 FEET WITH NO
SIGNIFICANT WEATHER AND/OR OBSTRUCTIONS TO VISIBILITY.

AZZ001>003-036-020600-
NORTHWEST ARIZONA

CITY           SKY/WX    TMP DP  RH WIND       PRES   REMARKS
KINGMAN        MOCLDY    79  46  31 S9        30.02R
$$

AZZ004>008-015-016-018-020600-
NORTH CENTRAL ARIZONA

CITY           SKY/WX    TMP DP  RH WIND       PRES   REMARKS
GRAND CANYON   CLEAR     57  52  83 CALM      30.28R
WILLIAMS       PTCLDY    64  46  52 S7        30.34S
PRESCOTT       PTCLDY    70  49  47 S5        30.17S
FLAGSTAFF      NOT AVBL
PAYSON         MOCLDY    72  52  49 E3        30.20F
PAGE           CLEAR     78  49  35 S10       30.06R
$$

AZZ009>014-017-020600-
NORTHEAST ARIZONA

CITY           SKY/WX    TMP DP  RH WIND       PRES   REMARKS
WINSLOW        NOT AVBL
SAINT JOHNS    MOCLDY    67  52  58 SW7       30.22R
WINDOW ROCK    CLOUDY    60  53  77 CALM      30.29S
SHOW LOW       CLOUDY    63  52  67 S8        30.29S
$$

AZZ023-020600-
GREATER PHOENIX AREA

CITY           SKY/WX    TMP DP  RH WIND       PRES   REMARKS
PHOENIX        MOCLDY    93  62  35 E5        29.85S
DEER VALLEY    PTCLDY    91  57  31 E5        29.88R
SCOTTSDALE     PTCLDY    91  60  35 CALM      29.90S
MESA-GATEWAY   PTCLDY    90  64  43 CALM      29.90R
$$

AZZ027-028-020600-
SOUTHWEST MARICOPA COUNTY AND PINAL COUNTY

CITY           SKY/WX    TMP DP  RH WIND       PRES   REMARKS
CASA GRANDE    MOCLDY    90  63  40 CALM      29.88S
$$

AZZ503-504-507>509-020600-
SOUTHEAST ARIZONA

CITY           SKY/WX    TMP DP  RH WIND       PRES   REMARKS
TUCSON         CLOUDY    85  65  51 CALM      30.03R
DAVIS-MONTHAN  CLEAR     81  68  64 SE5       30.01S
NOGALES        CLOUDY    77  58  51 CALM      30.13R
SIERRA VISTA   CLOUDY    77  52  41 SE7       30.18S
SAFFORD        CLOUDY    76  68  76 NE3       30.03S
$$

AZZ020-021-025-026-031-020600-
SOUTHWEST ARIZONA

CITY           SKY/WX    TMP DP  RH WIND       PRES   REMARKS
YUMA           PTCLDY    89  62  40 SE13      29.80R
$$

CAZ031-033-041-043-047-048-061-020600-
SOUTHERN CALIFORNIA

CITY           SKY/WX    TMP DP  RH WIND       PRES   REMARKS
DOWNTOWN L.A.  CLOUDY    70  61  73 CALM      29.94S
L.A. AIRPORT   MOCLDY    68  62  81 W7        29.95R
SAN DIEGO      CLOUDY    70  61  73 SW5       29.97R
BURBANK        MOCLDY    69  61  75 CALM      29.95R
ONTARIO        MOCLDY    69  60  73 W10       29.96R
RIVERSIDE      CLOUDY    69  60  73 W6        29.96R
PALM SPRINGS   PTCLDY    89  52  28 NW15      29.82R
EL CENTRO NAS  PTCLDY    90  43  19 S7        29.79R
IMPERIAL       CLEAR     92  49  22 S8        29.76R
BLYTHE         CLEAR     93  53  25 S14       29.80R
$$

NVZ020-UTZ003-020600-
SOUTHERN NEVADA-UTAH

CITY           SKY/WX    TMP DP  RH WIND       PRES   REMARKS
LAS VEGAS      NOT AVBL
SALT LAKE CITY PTCLDY    80  34  19 S14       29.91S
$$

NMZ009-TXZ055-020600-
NEW MEXICO-WEST TEXAS

CITY           SKY/WX    TMP DP  RH WIND       PRES   REMARKS
ALBUQUERQUE    MOCLDY    76  42  29 S7        30.18R
EL PASO        MOCLDY    87  41  19 W7        30.05R
$$


........................KEY........................
SKY/WX - SKY CONDITION/WEATHER
TMP    - TEMPERATURE IN FAHRENHEIT
DP     - DEW POINT IN FAHRENHEIT
RH     - RELATIVE HUMIDITY IN PERCENT
WIND   - DIRECTION AND SPEED IN MILES PER HOUR (MPH)
VRB    - VARIABLE WIND DIRECTION
PRES   - MEAN SEA LEVEL PRESSURE IN INCHES OF MERCURY
         F - FALLING PRESSURE   R - RISING PRESSURE
         S - STEADY PRESSURE
VSB    - VISIBILITY IN MILES
HX     - HEAT INDEX IN FAHRENHEIT
WCI    - WIND CHILL INDEX IN FAHRENHEIT
TC     - TEMPERATURE IN CELSIUS WHICH IS ALSO KNOWN AS
         TEMPERATURE IN CENTIGRADE
AFB    - AIR FORCE BASE
         LUKE AFB IS LUKE AIR FORCE BASE
         DAVIS-MONTHAN IS DAVIS-MONTHAN AIR FORCE BASE
NAS    - NAVAL AIR STATION
         EL CENTRO NAS IS EL CENTRO NAVAL AIR STATION
N/A    - NOT AVAILABLE




USA.gov is the U.S. government's official web portal to all federal, state and local government web resources and services.